Location: Shannon
(40.5500°S, 175.4167°E)
Time: 03:41:45
(UTC+00:00)

Cosmos 1633 Rocket - Visible Passes

Search period start: 19 February 2026 00:00
Search period end: 01 March 2026 00:00
Orbit: 600 x 616 km, 82.5° (Epoch: 18 February)

Date Brightness Start Highest point End Pass type
(mag) Time Alt. Az. Time Alt. Az. Time Alt. Az.
19 Feb 5.9 13:17:38 10° S 13:18:21 14° S 13:18:21 14° S visible
20 Feb 6.0 13:31:30 10° SSW 13:31:52 12° SSW 13:31:52 12° SSW visible
22 Feb 6.2 12:21:57 10° SSE 12:22:03 10° SSE 12:22:03 10° SSE visible
23 Feb 6.3 12:35:29 10° S 12:35:37 11° S 12:35:37 11° S visible
